Moses Lake, WA

10:15 PM PST on February 21, 2017 (GMT -0800)
Grant County International

Weather History for KMWH - January, 2014

Change the Weather History Date:

Friday, January 10, 2014

  Actual Average Record
Temperature  
Mean Temperature 44 °F 29 °F  
Max Temperature 54 °F 35 °F 54 °F (2006)
Min Temperature 34 °F 23 °F 2 °F (1980)
Degree Days  
Heating Degree Days 21 36  
Month to date heating degree days 335 366  
Since 1 July heating degree days 3019 2953  
Cooling Degree Days 0 0  
Month to date cooling degree days 0 0  
Year to date cooling degree days 0 0  
Moisture  
Dew Point 31 °F    
Average Humidity 62    
Maximum Humidity 82    
Minimum Humidity 41    
Precipitation  
Precipitation 0.00 in 0.05 in 0.17 in (2006)
Month to date precipitation 0.04 0.50  
Year to date precipitation 0.04 0.50  
Sea Level Pressure  
Sea Level Pressure 29.88 in    
Wind  
Wind Speed 12 mph (SSW)    
Max Wind Speed 25 mph    
Max Gust Speed 33 mph    
Visibility 10 miles    
Events      
T = Trace of Precipitation, MM = Missing Value Source: NWS Daily Summary

Daily Weather History Graph

Daily Weather History Graph

Search for Another Location

Airport or City:

Trip Planner

Search our weather history database for the weather conditions in past years. The results will help you decide how hot, cold, wet, or windy it might be!

Date:

Astronomy

Jan. 10, 2014 Rise Set
Actual Time 7:41 AM PST 4:28 PM PST
Civil Twilight 7:07 AM PST 5:03 PM PST
Nautical Twilight 6:28 AM PST 5:41 PM PST
Astronomical Twilight 5:52 AM PST 6:18 PM PST
Moon 12:40 PM PST (1/10) 2:48 AM PST (1/10)
Length of Visible Light 9h 55m
Length of Day
8h 46m
Waxing Gibbous, 76% of the Moon is Illuminated
Jan 10
Waxing Gibbous
Jan 15
Full
Jan 23
Last Quarter
Jan 30
New
Feb 6
First Quarter

Hourly Weather History & Observations

Time (PST) Temp. Windchill Dew Point Humidity Pressure Visibility Wind Dir Wind Speed Gust Speed Precip Events Conditions
12:52 AM 37.9 °F 31.5 °F 32.0 °F 79% 29.77 in 10.0 mi SSW 9.2 mph - N/A   Clear
1:52 AM 39.9 °F 33.9 °F 32.0 °F 73% 29.79 in 10.0 mi South 9.2 mph - N/A   Clear
2:52 AM 39.9 °F 33.9 °F 30.9 °F 70% 29.81 in 10.0 mi South 9.2 mph - N/A   Clear
3:52 AM 39.9 °F 32.5 °F 30.9 °F 70% 29.82 in 10.0 mi SSW 12.7 mph - N/A   Clear
4:52 AM 41.0 °F 34.3 °F 30.9 °F 67% 29.82 in 10.0 mi South 11.5 mph - N/A   Clear
5:52 AM 36.0 °F 29.0 °F 28.9 °F 76% 29.83 in 10.0 mi SSE 9.2 mph - N/A   Clear
6:52 AM 42.1 °F 36.6 °F 30.0 °F 62% 29.85 in 10.0 mi SSW 9.2 mph - N/A   Clear
7:52 AM 43.0 °F 37.7 °F 30.0 °F 60% 29.86 in 10.0 mi SW 9.2 mph - N/A   Clear
8:52 AM 44.1 °F 38.1 °F 30.0 °F 58% 29.89 in 10.0 mi South 11.5 mph - N/A   Clear
9:52 AM 46.0 °F 39.3 °F 32.0 °F 58% 29.92 in 10.0 mi SSW 16.1 mph 23.0 mph N/A   Clear
10:52 AM 48.9 °F - 32.0 °F 52% 29.94 in 10.0 mi SW 17.3 mph - N/A   Clear
11:52 AM 50.0 °F - 32.0 °F 50% 29.93 in 10.0 mi SW 21.9 mph 32.2 mph N/A   Partly Cloudy
12:52 PM 52.0 °F - 32.0 °F 47% 29.92 in 9.0 mi SW 20.7 mph 31.1 mph N/A   Clear
1:52 PM 52.0 °F - 28.0 °F 40% 30.07 in 7.0 mi SW 19.6 mph 27.6 mph N/A   Overcast
2:52 PM 50.0 °F - 28.0 °F 43% 29.93 in 8.0 mi SW 13.8 mph - N/A   Overcast
3:52 PM 48.9 °F - 28.9 °F 46% 29.94 in 10.0 mi WSW 12.7 mph - N/A   Overcast
4:52 PM 48.0 °F - 28.9 °F 48% 29.94 in 10.0 mi SW 9.2 mph - N/A   Overcast
5:52 PM 46.9 °F - 30.0 °F 52% 29.93 in 10.0 mi SSW 8.1 mph 18.4 mph N/A   Overcast
6:52 PM 45.0 °F 40.1 °F 32.0 °F 60% 29.91 in 10.0 mi SSW 9.2 mph - N/A   Overcast
7:52 PM 44.1 °F 39.0 °F 33.1 °F 65% 29.89 in 10.0 mi South 9.2 mph - N/A   Overcast
8:52 PM 43.0 °F 37.7 °F 34.0 °F 71% 29.86 in 10.0 mi South 9.2 mph - N/A   Overcast
9:52 PM 42.1 °F 37.7 °F 34.0 °F 73% 29.82 in 10.0 mi SE 6.9 mph - N/A   Overcast
10:52 PM 43.0 °F 37.2 °F 34.0 °F 71% 29.92 in 10.0 mi SSE 10.4 mph - N/A   Overcast
11:52 PM 44.1 °F 37.4 °F 35.1 °F 71% 29.86 in 10.0 mi South 13.8 mph - N/A   Clear